User: anonymous   Login
Location: Prairie State College
(41.5244°N, 87.6382°W)
Time: 22:40:53
(UTC-05:00)
Language:

Cosmos 1943 - Orbit

View from above orbital plane
View from above orbital plane
View from above satellite
View from above satellite

Ground track
Ground track

The orbit data is extracted from the following two-line orbital elements,

1 19119U 88039A   17177.91847725 +.00000297 +00000-0 +17742-3 0  9997
2 19119 071.0042 081.3486 0010253 034.9317 008.2681 14.15092758503202
Epoch (UTC): 26 June 2017 22:02:36
Eccentricity: 0.0010253
inclination: 71.0042°
perigee height: 834 km
apogee height: 849 km
right ascension of ascending node: 81.3486°
argument of perigee: 34.9317°
revolutions per day: 14.15092758
mean anomaly at epoch: 8.2681°
orbit number at epoch: 50320

The dashed part of the orbit path shows where the satellite is in the earth's shadow,  

DLR